Location: Kellogg
(38.0159°N, 90.0546°W)
Time: 21:38:58
(UTC+00:00)

SR - Pass Details

Date: 14 September 2024
Orbit: 578 x 855 km, 66.7° (Epoch: 09 October)

Event Time Altitude Azimuth Distance (km) Brightness Sun altitude
Rises 19:09:22 0° 211° (SSW) 2,833 ? 51.1°
Reaches altitude 10° 19:11:38 10° 213° (SSW) 1,911 ? 50.9°
Maximum altitude 19:15:52 75° 298° (WNW) 604 ? 50.4°
Drops below altitude 10° 19:20:05 10° 25° (NNE) 1,896 ? 50.0°
Sets 19:22:20 0° 27° (NNE) 2,808 ? 49.7°
